Regional Weather Roundup
Issued by NWS Cleveland, OH

Home | Current Version | Previous Version | Graphics & Text | Print | Product List | Glossary On
Versions: 1 2 3 4 5 6 7 8 9 10 11 12 13 14 15 16 17 18 19 20 21 22 23 24 25 26 27 28 29 30 31 32 33 34 35 36 37 38 39 40 41 42 43 44 45 46 47 48 49 50
000
ASUS41 KCLE 041610
RWRCLE
OHIO REGIONAL WEATHER ROUNDUP
NATIONAL WEATHER SERVICE CLEVELAND, OH
1200 PM EDT FRI SEP 04 2015

NOTE: "FAIR" INDICATES FEW OR NO CLOUDS BELOW 12,000 FEET WITH NO
SIGNIFICANT WEATHER AND/OR OBSTRUCTIONS TO VISIBILITY.

OHZ001>008-015>018-024>027-034-035-043-044-041700-
   NORTHWEST OHIO

CITY           SKY/WX    TMP DP  RH WIND       PRES   REMARKS
DEFIANCE       MOSUNNY   83  71  67 S5        30.02S
FINDLAY        PTSUNNY   84  71  65 S12       30.03R
TOLEDO EXPRESS MOSUNNY   80  71  74 SW6       30.02S
TOLEDO EXEC    MOSUNNY   82  70  66 S9        30.03S
LIMA           MOSUNNY   80  70  71 S6        30.05R
$$

OHZ009>014-019>023-028>033-038-089-041700-
   NORTHEAST OHIO

CITY           SKY/WX    TMP DP  RH WIND       PRES   REMARKS
CLE-HOPKINS    MOSUNNY   76  67  73 S7        30.07S
CLE-LAKEFRONT  PTSUNNY   80  67  64 S6        30.05R
CUY CO. ARPT   PTSUNNY   77  70  78 NE6       30.08R
LORAIN-ELYRIA  PTSUNNY   72  66  81 S10       30.07R
ASHTABULA      PTSUNNY   75  66  73 S7        30.09S
AKRON-CANTON   CLOUDY    72  64  76 S7        30.08F
WOOSTER        CLOUDY    68  66  93 VRB3      30.09F
MANSFIELD      CLOUDY    73  65  75 SE14      30.10R
YOUNGSTOWN     CLOUDY    73  65  75 S3        30.10R
$$

OHZ042-051>053-060>062-070>072-077>081-041700-
  SOUTHWEST OHIO

CITY           SKY/WX    TMP DP  RH WIND       PRES   REMARKS
CINC-COVINGTON MOSUNNY   88  66  48 W7        30.07R HX  90
CINC-LUNKEN    SUNNY     87  69  54 S3        30.06R HX  91
HAMILTON       SUNNY     88  69  53 VRB3      30.06S HX  92
DAYTON         MOSUNNY   85  69  58 VRB3      30.07S
WRIGHT-PAT AFB MOSUNNY   83  72  67 S2        30.06S
DAYTON GENERAL SUNNY     85  69  58 SW9       30.06S
WILMINGTON     SUNNY     83  70  64 VRB3      30.08R
$$

OHZ036-037-039>041-045>050-054>059-063>069-073>076-082>088-041700-
  CENTRAL AND SOUTHEAST OHIO

CITY           SKY/WX    TMP DP  RH WIND       PRES   REMARKS
COLUMBUS       PTSUNNY   76  67  73 SE8       30.07F
OSU AIRPORT    MOSUNNY   81  68  64 SE10      30.07F
BOLTON FIELD   SUNNY     79  70  73 S9        30.08S
RICKENBACK AFB PTSUNNY   79  69  71 S6        30.07F
NEWARK         CLOUDY    76  66  71 CALM      30.09S
MARION         SUNNY     79  69  71 S9        30.07R
LANCASTER      PTSUNNY   79  68  69 SE7       30.09S
ZANESVILLE     CLOUDY    72  68  87 S3        30.10F
NEW PHILLY     LGT RAIN  68  67  96 SE3       30.10F
$$



USA.gov is the U.S. government's official web portal to all federal, state and local government web resources and services.